Location: Clanezzo
(45.7500°N, 9.6000°E)
Time: 08:01:17
(UTC+00:00)

CAS-4A - Pass Details

Date: 07 July 2022
Orbit: 521 x 537 km, 43.0° (Epoch: 08 August)

Event Time Altitude Azimuth Distance (km) Brightness Sun altitude
Exits shadow 02:23:11 - 270° (W) 2,143 ? -10.8°
Reaches altitude 10° 02:24:12 10° 267° (W) 1,755 ? -10.7°
Maximum altitude 02:28:03 47° 193° (SSW) 700 ? -10.2°
Drops below altitude 10° 02:31:55 10° 119° (ESE) 1,759 ? -9.8°
Sets 02:34:12 0° 114° (ESE) 2,649 ? -9.5°
